| time (UTC) | temp F | wind direction | speed MPH | gust MPH | rain 1hr in | rain 24hr in | rain mn in | humidity % | barometer mb |
| 20260507171541 | 52 | 0 | 1.0 | 4.0 | 0.09 | 1.20 | 1.20 | 89 | 1009.9 |
| 20260507170028 | 52 | 0 | 1.0 | 5.0 | 0.12 | 1.17 | 1.17 | 89 | 1009.9 |
| 20260507164528 | 52 | 91 | 0.0 | 2.0 | 0.21 | 1.16 | 1.16 | 89 | 1009.8 |
| 20260507163027 | 53 | 0 | 0.0 | 2.0 | 0.31 | 1.15 | 1.15 | 90 | 1009.9 |
| 20260507161527 | 52 | 0 | 0.0 | 8.0 | 0.35 | 1.11 | 1.11 | 89 | 1009.6 |
| 20260507160031 | 52 | 105 | 0.0 | 8.0 | 0.38 | 1.04 | 1.04 | 89 | 1009.7 |
| 20260507154530 | 54 | 94 | 0.0 | 3.0 | 0.37 | 0.95 | 0.95 | 88 | 1009.6 |
| 20260507153029 | 54 | 91 | 0.0 | 9.0 | 0.28 | 0.84 | 0.84 | 89 | 1009.7 |
| 20260507151527 | 55 | 51 | 0.0 | 5.0 | 0.21 | 0.76 | 0.76 | 89 | 1009.9 |
| 20260507150036 | 56 | 73 | 0.0 | 6.0 | 0.13 | 0.67 | 0.67 | 89 | 1009.7 |
| 20260507144528 | 57 | 79 | 1.0 | 8.0 | 0.06 | 0.57 | 0.57 | 89 | 1009.8 |
| 20260507143028 | 57 | 153 | 1.0 | 6.0 | 0.05 | 0.56 | 0.56 | 89 | 1009.5 |
| 20260507141528 | 58 | 86 | 1.0 | 5.0 | 0.06 | 0.55 | 0.55 | 89 | 1009.5 |
| 20260507140037 | 58 | 333 | 1.0 | 9.0 | 0.07 | 0.52 | 0.52 | 89 | 1009.3 |
| 20260507134530 | 59 | 91 | 1.0 | 4.0 | 0.06 | 0.51 | 0.51 | 89 | 1009.1 |
| 20260507133033 | 59 | 0 | 0.0 | 4.0 | 0.07 | 0.51 | 0.51 | 89 | 1009.1 |
| 20260507131558 | 59 | 76 | 0.0 | 7.0 | 0.08 | 0.49 | 0.49 | 89 | 1009.3 |
| 20260507130029 | 59 | 295 | 0.0 | 11.0 | 0.14 | 0.46 | 0.46 | 89 | 1009.5 |
| 20260507124530 | 59 | 71 | 1.0 | 10.0 | 0.18 | 0.45 | 0.45 | 89 | 1009.5 |
| 20260507123030 | 60 | 14 | 0.0 | 7.0 | 0.22 | 0.44 | 0.44 | 88 | 1009.5 |
| 20260507121528 | 60 | 81 | 1.0 | 8.0 | 0.27 | 0.41 | 0.41 | 87 | 1009.5 |
| 20260507120033 | 63 | 66 | 6.0 | 17.0 | 0.24 | 0.32 | 0.32 | 84 | 1009.2 |
| 20260507114527 | 65 | 311 | 1.0 | 3.0 | 0.20 | 0.27 | 0.27 | 88 | 1009.1 |
| 20260507113058 | 65 | 345 | 3.0 | 4.0 | 0.16 | 0.21 | 0.21 | 88 | 1008.8 |
| 20260507111532 | 65 | 0 | 0.0 | 2.0 | 0.13 | 0.14 | 0.14 | 88 | 1009.0 |
| 20260507110031 | 66 | 299 | 1.0 | 3.0 | 0.07 | 0.08 | 0.08 | 87 | 1008.8 |
| 20260507104527 | 66 | 286 | 1.0 | 4.0 | 0.06 | 0.07 | 0.07 | 86 | 1008.7 |
| 20260507103029 | 67 | 0 | 0.0 | 4.0 | 0.03 | 0.04 | 0.04 | 84 | 1008.7 |
| 20260507101527 | 67 | 231 | 2.0 | 5.0 | 0.00 | 0.01 | 0.01 | 82 | 1008.2 |
| 20260507100038 | 67 | 285 | 2.0 | 6.0 | 0.00 | 0.01 | 0.01 | 81 | 1007.9 |
| 20260507094528 | 67 | 234 | 2.0 | 6.0 | 0.00 | 0.01 | 0.01 | 81 | 1007.9 |
| 20260507093034 | 68 | 9 | 2.0 | 4.0 | 0.00 | 0.01 | 0.01 | 80 | 1007.7 |
| 20260507091534 | 68 | 311 | 2.0 | 8.0 | 0.00 | 0.01 | 0.01 | 79 | 1007.8 |
| 20260507090028 | 68 | 242 | 3.0 | 9.0 | 0.00 | 0.01 | 0.01 | 79 | 1008.0 |
| 20260507084544 | 68 | 242 | 4.0 | 9.0 | 0.00 | 0.01 | 0.01 | 78 | 1008.2 |
| 20260507083030 | 68 | 271 | 2.0 | 7.0 | 0.00 | 0.01 | 0.01 | 77 | 1008.4 |
| 20260507081528 | 68 | 230 | 2.0 | 7.0 | 0.00 | 0.01 | 0.01 | 77 | 1008.6 |
| 20260507080030 | 68 | 0 | 0.0 | 7.0 | 0.00 | 0.01 | 0.01 | 77 | 1008.6 |
| 20260507074528 | 68 | 0 | 1.0 | 4.0 | 0.00 | 0.01 | 0.01 | 78 | 1009.0 |
| 20260507073030 | 68 | 0 | 2.0 | 11.0 | 0.00 | 0.01 | 0.01 | 78 | 1008.7 |
| 20260507071532 | 67 | 212 | 2.0 | 6.0 | 0.01 | 0.01 | 0.01 | 79 | 1008.7 |
| 20260507070030 | 67 | 241 | 1.0 | 5.0 | 0.01 | 0.01 | 0.01 | 79 | 1008.7 |
| 20260507064533 | 67 | 0 | 0.0 | 3.0 | 0.01 | 0.01 | 0.01 | 79 | 1008.1 |
| 20260507063028 | 68 | 210 | 0.0 | 6.0 | 0.01 | 0.01 | 0.01 | 78 | 1008.0 |
| 20260507061535 | 68 | 0 | 0.0 | 6.0 | 0.00 | 0.00 | 0.00 | 77 | 1009.2 |
| 20260507060036 | 68 | 0 | 0.0 | 4.0 | 0.00 | 0.00 | 0.00 | 76 | 1009.5 |
| 20260507054538 | 69 | 259 | 1.0 | 4.0 | 0.00 | 0.00 | 0.00 | 74 | 1009.7 |
| 20260507053031 | 70 | 256 | 2.0 | 6.0 | 0.00 | 0.00 | 0.00 | 72 | 1009.7 |
| 20260507051530 | 71 | 222 | 0.0 | 4.0 | 0.00 | 0.00 | 0.00 | 70 | 1009.8 |
| 20260507050049 | 71 | 0 | 1.0 | 4.0 | 0.00 | 0.00 | 0.00 | 69 | 1009.5 |
| 20260507044528 | 71 | 0 | 1.0 | 7.0 | 0.00 | 0.00 | 0.00 | 69 | 1009.3 |
| 20260507043028 | 71 | 238 | 0.0 | 8.0 | 0.00 | 0.00 | 0.00 | 69 | 1009.6 |
| 20260507041527 | 71 | 211 | 2.0 | 7.0 | 0.00 | 0.00 | 0.00 | 69 | 1009.7 |
| 20260507040028 | 71 | 243 | 1.0 | 6.0 | 0.00 | 0.00 | 0.00 | 69 | 1009.5 |
| 20260507034535 | 71 | 0 | 0.0 | 4.0 | 0.00 | 0.00 | 0.00 | 70 | 1009.1 |
| 20260507033038 | 71 | 207 | 1.0 | 3.0 | 0.00 | 0.00 | 0.00 | 70 | 1009.2 |
| 20260507031533 | 72 | 0 | 1.0 | 4.0 | 0.00 | 0.00 | 0.00 | 69 | 1009.3 |
| 20260507030035 | 72 | 0 | 0.0 | 2.0 | 0.00 | 0.00 | 0.00 | 69 | 1009.3 |
| 20260507024535 | 72 | 0 | 0.0 | 4.0 | 0.00 | 0.00 | 0.00 | 70 | 1009.5 |
| 20260507023026 | 73 | 0 | 0.0 | 2.0 | 0.00 | 0.00 | 0.00 | 70 | 1009.8 |
| 20260507021544 | 73 | 0 | 0.0 | 3.0 | 0.00 | 0.00 | 0.00 | 70 | 1009.8 |
| 20260507020028 | 73 | 37 | 1.0 | 4.0 | 0.00 | 0.00 | 0.00 | 70 | 1009.8 |
| 20260507014527 | 74 | 0 | 0.0 | 2.0 | 0.00 | 0.00 | 0.00 | 70 | 1010.0 |
| 20260507013033 | 74 | 0 | 0.0 | 4.0 | 0.00 | 0.00 | 0.00 | 68 | 1009.6 |
| 20260507011532 | 74 | 223 | 0.0 | 3.0 | 0.00 | 0.00 | 0.00 | 66 | 1009.8 |
| 20260507010039 | 74 | 175 | 1.0 | 4.0 | 0.00 | 0.00 | 0.00 | 64 | 1009.8 |
| 20260507004528 | 74 | 0 | 0.0 | 4.0 | 0.00 | 0.00 | 0.00 | 63 | 1009.7 |
| 20260507003029 | 75 | 218 | 1.0 | 2.0 | 0.00 | 0.00 | 0.00 | 63 | 1009.5 |
| 20260507001530 | 75 | 237 | 0.0 | 4.0 | 0.00 | 0.00 | 0.00 | 61 | 1009.3 |
| 20260507000033 | 76 | 0 | 0.0 | 4.0 | 0.00 | 0.00 | 0.00 | 60 | 1009.1 |
| 20260506234530 | 76 | 228 | 1.0 | 6.0 | 0.00 | 0.00 | 0.00 | 59 | 1009.0 |
| 20260506233028 | 77 | 257 | 1.0 | 6.0 | 0.00 | 0.00 | 0.00 | 58 | 1008.8 |
| 20260506231530 | 77 | 258 | 1.0 | 8.0 | 0.00 | 0.00 | 0.00 | 58 | 1008.8 |
| 20260506230029 | 77 | 270 | 1.0 | 5.0 | 0.00 | 0.00 | 0.00 | 57 | 1008.6 |
| 20260506224530 | 78 | 307 | 2.0 | 7.0 | 0.00 | 0.00 | 0.00 | 57 | 1008.5 |
| 20260506223030 | 78 | 221 | 3.0 | 11.0 | 0.00 | 0.00 | 0.00 | 57 | 1008.5 |
| 20260506221527 | 78 | 258 | 3.0 | 10.0 | 0.00 | 0.00 | 0.00 | 58 | 1008.5 |
| 20260506220034 | 78 | 252 | 1.0 | 8.0 | 0.00 | 0.00 | 0.00 | 58 | 1008.5 |
| 20260506214531 | 78 | 194 | 5.0 | 13.0 | 0.00 | 0.00 | 0.00 | 57 | 1008.4 |
| 20260506213031 | 78 | 103 | 4.0 | 8.0 | 0.00 | 0.00 | 0.00 | 58 | 1008.1 |
| 20260506211530 | 78 | 302 | 3.0 | 12.0 | 0.00 | 0.00 | 0.00 | 57 | 1008.3 |
| 20260506210034 | 78 | 230 | 3.0 | 11.0 | 0.00 | 0.00 | 0.00 | 57 | 1008.6 |
| 20260506204546 | 78 | 249 | 4.0 | 14.0 | 0.00 | 0.00 | 0.00 | 57 | 1008.8 |
| 20260506203030 | 78 | 265 | 3.0 | 11.0 | 0.00 | 0.00 | 0.00 | 58 | 1009.2 |
| 20260506201534 | 78 | 113 | 4.0 | 10.0 | 0.00 | 0.00 | 0.00 | 59 | 1009.3 |
| 20260506200033 | 79 | 234 | 5.0 | 13.0 | 0.00 | 0.00 | 0.00 | 57 | 1009.8 |
| 20260506194530 | 78 | 288 | 5.0 | 17.0 | 0.00 | 0.00 | 0.00 | 59 | 1010.0 |
| 20260506193027 | 78 | 188 | 4.0 | 9.0 | 0.00 | 0.00 | 0.00 | 58 | 1010.0 |
| 20260506191527 | 77 | 178 | 4.0 | 9.0 | 0.00 | 0.00 | 0.00 | 59 | 1010.1 |
| 20260506190028 | 76 | 245 | 4.0 | 12.0 | 0.00 | 0.00 | 0.00 | 60 | 1010.3 |
| 20260506184528 | 77 | 291 | 3.0 | 13.0 | 0.00 | 0.00 | 0.00 | 59 | 1010.4 |